Wetbulb
64.15 64.20 65.32 65.92 65.83 66.65 66.76 66.55 66.09 66.34 66.35 66.44 66.62 66.64 66.81 66.98 67.16 67.04 66.62 66.08 65.33 64.96 64.59 64.45 64.78 64.75 64.73 63.97 60.71 61.13 55.17 57.20
61.76 62.31 63.32 65.23 65.69 66.05 66.00 65.79 65.42 65.68 66.07 65.72 65.49 65.96 66.54 66.63 66.19 66.04 65.77 64.81 64.39 64.05 64.02 63.97 64.21 64.58 64.11 62.95 59.23 58.59 52.66 54.13
61.35 62.65 64.84 64.70 64.85 65.19 65.58 65.64 65.00 65.02 65.10 64.83 63.40 62.61 63.07 63.69 64.10 64.75 64.59 63.85 63.59 63.55 63.76 63.91 61.84 62.17 62.56 59.93 57.16 51.05 52.31 53.41
62.72 62.36 64.58 64.79 64.71 63.67 62.30 63.04 61.98 61.58 61.76 61.69 60.87 60.81 61.22 62.61 63.67 63.97 63.98 63.49 63.60 62.44 63.05 60.48 57.12 53.25 53.56 56.01 50.62 50.06 50.25 53.31
60.59 62.33 63.92 63.83 62.60 61.82 61.10 60.52 60.23 60.78 60.69 60.91 61.27 61.46 60.99 60.16 58.86 58.85 58.80 59.31 55.92 55.70 53.98 53.06 52.34 50.58 50.88 50.64 49.75 49.29 48.89 49.67
60.19 62.55 64.42 63.02 61.84 60.75 59.22 59.80 61.20 61.46 61.67 62.27 61.17 59.94 58.25 56.98 57.47 57.11 54.96 53.65 52.63 52.25 51.72 51.41 50.59 50.90 50.93 50.32 49.48 48.53 47.97 48.86
61.39 63.34 64.01 61.59 60.94 59.22 60.14 61.24 62.42 62.40 62.66 62.53 60.51 58.43 57.24 55.60 53.61 52.46 52.03 52.33 51.56 50.20 49.49 49.08 49.18 49.45 49.47 49.09 48.45 47.51 46.64 47.01
62.57 62.50 60.13 60.76 61.07 60.70 60.14 61.47 61.77 62.28 61.49 60.59 59.55 58.56 55.15 54.08 52.76 51.77 51.05 50.31 50.21 49.10 48.68 48.46 48.10 48.34 48.49 48.21 47.41 46.10 45.51 44.97
58.83 59.54 60.85 60.07 59.03 57.88 58.91 61.32 59.74 58.32 58.49 58.78 58.56 57.64 54.38 53.20 51.31 50.77 50.65 49.98 49.25 49.16 48.37 48.22 47.66 48.33 47.25 47.09 46.01 45.22 44.52 43.96
59.61 62.68 59.65 58.82 57.27 57.17 58.12 56.99 56.41 54.79 54.10 54.04 53.84 53.70 53.70 51.67 50.74 49.54 49.37 49.84 49.02 48.34 47.83 47.27 46.95 46.17 44.34 42.85 43.66 43.92 43.32 42.68
60.45 59.59 57.79 56.35 57.17 57.87 55.76 54.11 52.91 52.40 52.16 51.83 52.36 52.27 52.80 51.30 49.90 48.83 49.44 48.75 48.18 47.80 46.81 46.52 45.37 44.30 44.22 41.66 42.27 40.82 41.06 42.63
60.59 58.27 56.67 57.52 58.30 54.86 52.64 51.63 51.83 51.08 50.94 50.50 50.97 50.32 51.96 50.21 49.09 48.83 48.24 47.44 46.50 45.64 44.34 44.10 44.38 42.94 44.79 41.82 39.36 39.61 39.27 38.51
59.58 57.00 57.49 58.03 55.79 53.31 50.82 49.94 49.22 49.24 49.40 50.54 50.49 50.20 49.55 48.40 47.44 47.32 46.41 45.54 44.74 45.12 43.41 42.07 41.36 40.70 38.59 38.34 38.21 37.95 37.41 37.06
58.96 57.46 57.99 57.86 56.03 53.51 51.79 50.56 48.55 48.76 49.30 49.19 49.34 48.85 48.41 47.02 45.31 43.05 43.31 43.76 43.46 42.92 42.05 40.59 41.16 39.57 37.38 35.50 33.04 35.27 36.38 36.82
59.34 58.18 57.83 58.87 55.61 52.78 50.12 49.20 48.71 47.98 47.36 47.56 44.72 43.83 43.37 43.38 42.58 41.64 41.06 41.09 40.17 40.19 41.32 40.94 38.89 38.05 37.18 36.11 31.48 29.69 31.07 34.03
60.00 59.71 58.43 58.81 55.59 52.96 51.04 49.85 48.23 47.27 45.77 42.46 41.30 42.72 42.72 42.96 42.33 41.65 41.34 41.17 40.22 40.51 42.16 39.75 38.36 36.25 36.82 38.13 35.05 34.36 29.02 26.84
59.24 58.62 57.04 56.23 53.89 53.98 50.75 47.09 46.16 43.50 41.22 40.11 40.43 40.89 42.21 42.44 41.85 41.63 40.80 42.20 41.41 40.61 39.97 39.07 38.38 36.75 35.89 34.98 33.62 31.95 30.43 28.07
58.57 55.78 54.67 54.29 51.48 49.52 49.50 44.93 42.50 40.24 38.95 38.64 39.15 39.77 40.73 40.57 41.68 41.01 40.83 41.72 41.05 40.29 39.97 39.32 38.18 37.18 36.84 35.33 33.57 31.15 30.06 28.60
53.84 53.25 51.82 51.71 49.50 46.20 44.46 42.51 41.05 40.24 39.00 38.79 39.18 38.87 38.52 37.87 39.52 39.33 40.70 41.86 41.29 40.72 39.99 38.83 38.27 37.01 36.48 35.49 34.42 33.38 32.95 31.48
52.47 52.23 49.28 48.00 46.30 44.54 43.23 41.73 41.10 40.55 40.49 39.56 39.34 38.89 38.77 39.67 40.49 40.94 40.20 41.74 41.45 40.32 39.11 38.00 38.43 37.52 36.30 36.10 34.35 33.22 33.25 32.06
MSLP
1018.08 1018.67 1019.15 1019.43 1019.65 1019.04 1019.52 1019.60 1019.71 1019.83 1020.02 1020.42 1020.71 1021.01 1021.20 1021.49 1021.61 1021.78 1021.88 1021.98 1022.00 1022.18 1022.08 1022.14 1022.09 1021.99 1022.31 1022.62 1022.63 1022.77 1023.09 1023.27
1019.27 1018.88 1019.30 1019.63 1020.36 1020.17 1019.81 1020.09 1019.96 1019.85 1020.24 1020.90 1021.06 1021.30 1021.37 1021.73 1021.63 1021.79 1022.08 1022.09 1022.03 1022.21 1022.29 1022.06 1022.05 1021.97 1022.37 1022.65 1022.80 1023.03 1023.12 1023.56
1019.37 1019.36 1019.81 1020.28 1020.51 1020.07 1019.98 1020.41 1020.49 1020.54 1020.92 1021.10 1021.14 1021.41 1021.61 1021.93 1022.04 1022.20 1022.40 1022.31 1022.31 1022.49 1022.50 1022.50 1022.46 1022.41 1022.61 1022.80 1022.97 1023.26 1023.42 1023.59
1018.76 1018.99 1019.37 1019.64 1020.11 1020.16 1020.33 1020.53 1020.49 1020.75 1020.99 1021.29 1021.43 1021.68 1022.01 1022.09 1022.08 1022.19 1022.31 1022.45 1022.51 1022.67 1022.77 1022.73 1022.83 1022.98 1023.09 1022.84 1023.34 1023.33 1023.37 1023.66
1019.49 1019.12 1019.24 1019.81 1019.78 1020.09 1020.42 1020.81 1020.96 1021.04 1021.28 1021.54 1021.54 1021.73 1022.13 1022.30 1022.36 1022.49 1022.63 1022.55 1022.86 1023.06 1023.13 1023.18 1023.26 1023.40 1023.37 1023.39 1023.48 1023.53 1023.61 1023.64
1019.46 1019.21 1019.16 1019.52 1019.68 1019.93 1020.32 1020.73 1021.06 1020.94 1021.29 1021.35 1021.70 1022.11 1022.61 1022.65 1022.69 1022.96 1023.00 1023.28 1023.31 1023.46 1023.46 1023.54 1023.49 1023.62 1023.63 1023.71 1023.64 1023.69 1023.91 1023.84
1019.09 1019.14 1019.29 1019.58 1019.83 1019.96 1020.24 1020.85 1020.73 1020.83 1021.09 1021.27 1021.53 1022.07 1022.60 1022.75 1023.08 1023.25 1023.52 1023.40 1023.54 1023.57 1023.72 1023.93 1023.85 1023.85 1023.87 1023.87 1024.01 1024.14 1024.09 1024.09
1019.11 1019.17 1019.47 1019.54 1019.88 1019.99 1020.44 1020.65 1020.73 1020.95 1021.33 1021.50 1021.70 1022.01 1022.58 1022.86 1023.31 1023.41 1023.50 1023.76 1023.73 1023.74 1023.91 1024.03 1024.14 1024.08 1024.19 1024.31 1024.40 1024.37 1024.31 1024.13
1018.83 1019.06 1019.31 1019.67 1019.84 1020.34 1020.50 1020.68 1020.99 1021.43 1021.60 1021.81 1021.90 1022.07 1022.43 1023.15 1023.49 1023.66 1023.84 1023.61 1023.82 1024.10 1024.26 1024.29 1024.32 1024.31 1024.51 1024.49 1024.56 1024.60 1024.54 1024.39
1018.81 1019.00 1019.49 1019.85 1020.18 1020.52 1020.90 1021.21 1021.36 1021.57 1021.74 1022.02 1021.96 1022.27 1022.68 1023.31 1023.63 1023.61 1023.74 1023.87 1024.15 1024.36 1024.51 1024.51 1024.64 1024.87 1025.01 1025.00 1024.77 1024.83 1025.12 1025.17
1018.63 1019.08 1019.59 1019.95 1020.40 1020.71 1020.99 1021.27 1021.47 1021.83 1021.94 1022.04 1022.31 1022.45 1022.88 1023.47 1023.69 1023.87 1023.82 1024.10 1024.38 1024.57 1024.86 1024.98 1025.17 1025.11 1025.06 1025.21 1025.32 1025.69 1025.86 1025.65
1018.74 1019.31 1019.55 1019.99 1020.14 1020.95 1021.60 1021.85 1022.04 1021.96 1022.00 1022.33 1022.45 1022.80 1023.07 1023.41 1023.64 1023.81 1023.93 1024.20 1024.62 1024.98 1025.25 1025.16 1025.22 1025.40 1025.47 1025.73 1025.86 1026.14 1026.27 1026.27
1018.64 1019.15 1019.55 1019.84 1020.48 1021.18 1021.85 1022.08 1022.24 1022.32 1022.29 1022.41 1022.67 1022.74 1023.04 1023.38 1023.73 1024.02 1024.28 1024.60 1025.11 1025.11 1025.27 1025.51 1025.62 1025.75 1026.06 1026.32 1026.35 1026.55 1026.54 1026.63
1018.90 1019.12 1019.52 1019.83 1020.25 1020.51 1020.84 1021.73 1022.38 1022.33 1022.54 1022.61 1022.55 1022.85 1023.17 1023.48 1023.95 1024.41 1024.65 1025.00 1025.30 1025.47 1025.65 1025.83 1026.04 1026.21 1026.51 1026.97 1027.19 1027.00 1026.72 1026.65
1018.35 1018.81 1019.29 1019.65 1020.08 1020.58 1021.32 1022.04 1022.44 1022.75 1022.81 1022.89 1023.08 1023.13 1023.43 1023.73 1024.22 1024.69 1025.11 1025.32 1025.52 1025.60 1025.69 1025.96 1026.30 1026.64 1026.43 1026.71 1027.44 1027.70 1027.56 1027.12
1017.46 1018.13 1018.78 1019.15 1019.55 1020.32 1020.92 1021.49 1022.07 1022.52 1022.76 1023.10 1023.43 1023.57 1023.86 1024.21 1024.57 1024.90 1025.22 1025.45 1025.57 1025.48 1025.43 1025.90 1026.14 1026.69 1026.84 1026.69 1026.74 1026.96 1027.39 1027.69
1016.84 1017.56 1018.40 1019.01 1019.26 1019.76 1020.52 1021.38 1021.73 1022.33 1022.99 1023.57 1023.97 1024.20 1024.38 1024.60 1024.85 1025.04 1025.11 1025.36 1025.90 1025.89 1025.78 1025.96 1026.34 1026.76 1026.83 1026.88 1026.94 1026.95 1026.97 1027.22
1017.03 1017.20 1017.95 1018.61 1019.09 1019.48 1020.16 1021.04 1021.92 1022.87 1023.52 1023.93 1024.19 1024.43 1024.68 1024.82 1024.91 1025.06 1025.46 1025.51 1025.64 1025.89 1025.78 1026.17 1026.36 1026.46 1026.66 1026.87 1026.94 1027.07 1027.19 1027.33
1016.94 1017.30 1018.08 1018.66 1019.09 1019.60 1020.20 1021.03 1021.79 1022.66 1023.41 1023.95 1024.42 1024.86 1025.20 1025.23 1025.07 1025.01 1025.05 1025.37 1025.51 1025.77 1025.68 1026.15 1026.39 1026.51 1026.45 1026.49 1026.56 1026.61 1026.61 1026.81
1016.60 1017.15 1018.18 1019.10 1019.52 1020.06 1020.81 1021.39 1022.17 1022.90 1023.45 1023.99 1024.46 1024.76 1024.93 1024.94 1025.28 1025.27 1024.98 1025.30 1025.36 1025.64 1025.73 1025.77 1025.97 1026.19 1026.27 1026.26 1026.38 1026.59 1026.65 1026.65
Wind_Speed
17 14 15 13 7 11 11 13 14 14 15 15 15 14 13 12 12 10 8 6 5 7 8 8 6 9 9 12 11 11 7 4
18 14 9 1 6 7 10 11 12 13 13 12 12 11 11 10 10 9 7 5 4 6 6 7 8 10 9 10 12 10 7 4
15 15 13 9 6 7 9 8 9 10 10 11 8 4 5 6 4 6 5 2 4 8 8 9 10 12 12 11 11 4 4 3
13 13 11 7 7 5 4 5 4 5 6 5 4 5 4 4 6 5 4 5 7 11 11 13 9 5 4 8 4 4 4 2
9 10 5 11 6 3 3 2 3 3 5 5 4 4 4 3 3 4 4 9 5 5 5 4 6 4 4 4 5 5 3 2
6 7 7 5 4 5 4 3 2 3 5 7 5 4 4 4 3 4 5 3 5 4 4 5 6 6 6 6 6 5 4 3
10 8 9 5 5 4 4 4 5 5 5 5 5 5 5 4 4 4 4 4 3 4 4 4 5 5 5 7 6 6 6 3
9 6 6 7 6 6 4 4 4 4 4 5 6 5 5 5 4 4 4 3 3 4 4 4 5 5 6 5 5 5 6 6
8 8 7 7 8 6 5 5 5 5 5 6 6 6 6 6 4 4 3 3 5 5 4 4 4 3 6 5 5 6 5 7
7 10 8 8 7 5 5 4 4 4 5 4 7 6 7 5 4 4 4 5 4 3 4 4 4 4 2 4 4 6 6 6
8 8 8 9 7 5 5 6 5 4 5 4 6 7 7 5 4 4 5 5 5 3 4 3 2 3 2 4 4 5 5 5
10 7 9 8 7 5 4 4 3 3 4 4 7 5 7 6 5 5 5 4 4 3 3 3 2 2 2 3 2 4 4 5
12 11 7 8 6 6 4 4 3 3 4 6 7 7 6 6 4 5 4 4 3 2 2 3 3 3 2 3 3 4 4 4
10 11 9 7 6 3 4 6 2 3 4 5 6 7 6 6 6 5 6 4 5 4 2 1 1 4 3 2 2 4 4 4
14 13 12 9 6 5 4 4 3 3 2 4 4 7 7 7 7 6 5 3 2 1 2 2 1 3 5 4 1 3 1 2
16 13 10 10 12 8 14 9 7 3 3 3 4 5 7 6 6 6 4 2 2 1 4 2 3 2 1 2 1 4 4 3
15 10 8 7 10 12 10 6 3 4 4 7 5 5 6 6 6 5 6 4 4 5 5 6 3 2 1 1 1 1 1 2
8 11 9 11 10 9 12 12 10 7 5 4 4 4 4 5 5 5 4 5 5 4 5 5 3 3 2 2 3 2 2 1
10 11 8 6 10 8 10 10 9 9 6 4 5 3 2 3 3 4 2 4 5 4 5 3 3 2 3 3 2 2 2 2
14 14 11 7 8 8 6 8 5 5 5 4 4 4 4 4 4 3 5 2 3 2 1 2 4 3 4 4 2 0 1 1
Wind_Direction
73 73 88 96 28 83 112 126 137 133 133 136 131 129 126 122 119 117 120 119 105 80 66 57 38 36 46 53 59 84 71 44
114 100 79 103 188 159 143 153 151 144 134 130 125 127 124 130 133 135 140 122 77 79 86 69 47 79 73 61 76 86 73 56
138 140 168 197 176 178 154 161 138 118 122 131 121 131 126 115 123 96 63 37 355 28 30 40 52 48 64 64 72 74 99 62
151 154 161 172 184 158 164 163 144 142 140 129 109 113 115 114 105 91 46 29 26 50 74 63 61 62 48 59 55 68 77 119
160 173 170 176 161 149 152 142 127 144 119 131 147 112 90 88 86 54 52 67 65 62 59 59 66 59 52 56 41 29 36 347
192 201 175 181 154 163 169 144 149 136 154 140 122 112 119 89 79 78 71 71 81 73 71 73 59 62 65 55 41 43 31 17
203 203 180 175 159 159 148 144 153 139 131 122 120 106 100 101 86 84 87 86 90 80 70 65 58 46 41 44 45 39 31 24
197 171 174 157 156 131 134 142 103 85 81 104 105 111 110 93 95 86 69 65 64 72 79 67 57 48 39 40 59 42 36 37
166 162 157 138 125 126 116 112 100 102 112 109 117 115 109 115 104 93 99 65 73 66 52 55 56 38 50 55 35 27 34 42
156 155 145 132 125 114 109 115 118 123 118 121 108 107 113 110 112 82 69 72 87 63 35 36 40 42 42 32 31 44 41 34
148 143 136 125 124 119 117 124 112 126 115 107 115 101 116 106 93 79 80 65 55 38 30 52 44 24 27 47 49 56 47 44
151 144 141 140 127 111 86 96 98 118 113 120 110 102 105 97 81 74 69 66 46 37 57 23 46 15 30 42 38 81 47 52
162 152 162 138 139 137 128 141 134 111 111 120 120 109 99 96 94 86 69 68 42 35 48 26 359 20 57 3 360 67 80 53
167 164 166 161 159 155 132 144 165 136 135 112 100 102 106 94 89 72 59 59 37 21 25 349 39 18 125 113 3 333 358 15
174 178 176 173 151 110 89 74 75 88 87 88 95 109 107 103 100 96 83 89 63 350 12 108 163 37 31 139 79 225 328 315
179 183 180 179 160 155 166 171 161 167 135 126 116 111 102 102 98 96 94 73 61 90 82 106 109 108 29 53 131 165 188 285
182 168 167 184 175 171 168 141 131 114 110 123 116 93 104 105 105 97 76 75 88 109 97 89 95 131 167 248 290 222 139 149
181 157 163 172 165 152 161 148 141 132 136 134 133 112 92 80 85 78 84 129 131 138 119 120 141 143 158 173 179 182 237 213
151 148 141 152 146 133 137 139 138 143 149 138 128 114 96 80 96 91 85 150 154 155 135 151 161 174 194 218 195 217 185 199
159 153 141 135 129 120 120 128 131 126 132 130 126 130 135 130 79 58 66 126 162 185 183 191 181 203 222 222 229 222 173 121